�N����,����,�~����,�C��,���x,�C��,����,���ϕ���,�ő�u�ԕ���,�ő厞����,���˗�,�I�_���x,�n�����x,�ő啗���N��,DTYPE
"23/11/11","00:10",0.0,15.5,82.0,1011.9,324.4,3.2,6.4,341.4,0.00,12.5,16.9,"00:00:46",1
"23/11/11","00:20",0.0,15.3,82.1,1012.1,323.0,2.2,3.9,318.4,0.00,12.3,16.8,"00:13:42",1
"23/11/11","00:30",0.0,15.2,82.2,1012.3,303.9,2.1,4.2,316.9,0.00,12.2,16.8,"00:23:44",1
"23/11/11","00:40",0.0,15.2,81.9,1012.3,321.0,2.7,8.2,336.1,0.00,12.2,16.8,"00:33:06",1
"23/11/11","00:50",0.0,15.1,81.7,1011.9,322.9,2.6,4.8,341.2,0.00,12.0,16.6,"00:44:04",1
"23/11/11","01:00",0.0,14.9,81.8,1012.3,319.2,2.2,4.5,284.5,0.00,11.9,16.7,"00:51:52",1
"23/11/11","01:10",0.0,14.8,82.0,1012.3,310.2,2.0,4.3,278.4,0.00,11.8,16.8,"01:03:56",1
"23/11/11","01:20",0.0,14.6,82.4,1012.8,307.8,2.0,3.4,46.1,0.00,11.7,16.8,"01:14:10",1
"23/11/11","01:30",0.0,14.5,82.5,1012.3,309.6,2.2,3.2,323.2,0.00,11.6,16.8,"01:29:38",1
"23/11/11","01:40",0.0,14.5,82.4,1012.3,317.3,2.0,3.1,327.8,0.00,11.6,16.6,"01:30:56",1
"23/11/11","01:50",0.0,14.6,82.0,1013.3,310.1,2.2,3.9,346.8,0.00,11.6,16.4,"01:45:00",1
"23/11/11","02:00",0.0,14.5,81.6,1012.8,316.2,1.8,2.8,289.2,0.00,11.4,16.6,"01:58:24",1
"23/11/11","02:10",0.0,14.4,81.7,1012.6,308.2,1.8,2.9,337.2,0.00,11.4,16.6,"02:09:44",1
"23/11/11","02:20",0.0,14.4,81.6,1012.8,307.5,2.3,3.4,312.4,0.00,11.3,16.4,"02:16:16",1
"23/11/11","02:30",0.0,14.3,81.4,1012.6,292.2,2.0,3.6,287.1,0.00,11.2,16.4,"02:26:22",1
"23/11/11","02:40",0.0,14.2,81.3,1012.8,305.0,2.1,6.3,310.7,0.00,11.1,16.4,"02:35:08",1
"23/11/11","02:50",0.0,14.1,81.3,1012.8,299.8,1.8,3.2,345.4,0.00,11.0,16.5,"02:40:46",1
"23/11/11","03:00",0.0,13.9,81.6,1012.8,284.0,1.3,1.8,280.7,0.00,10.8,16.3,"02:50:46",1
"23/11/11","03:10",0.0,13.8,82.0,1012.8,311.2,1.3,2.1,296.3,0.00,10.8,16.3,"03:00:44",1
"23/11/11","03:20",0.0,13.8,82.1,1012.8,301.7,1.0,2.1,315.9,0.00,10.8,16.4,"03:13:06",1
"23/11/11","03:30",0.0,13.6,83.0,1013.0,328.2,1.3,1.9,316.0,0.00,10.8,16.2,"03:27:10",1
"23/11/11","03:40",0.0,13.5,83.4,1012.8,299.9,1.2,3.2,316.7,0.00,10.8,16.4,"03:32:44",1
"23/11/11","03:50",0.0,13.5,83.9,1012.8,295.6,1.0,1.7,319.3,0.00,10.9,16.2,"03:40:54",1
"23/11/11","04:00",0.0,13.4,84.8,1013.0,310.3,1.5,2.0,318.0,0.00,10.9,16.1,"03:58:20",1
"23/11/11","04:10",0.0,13.1,85.4,1013.3,310.3,1.8,3.3,325.2,0.00,10.7,16.1,"04:09:10",1
"23/11/11","04:20",0.0,13.3,85.3,1013.3,313.6,2.0,3.1,334.2,0.00,10.9,16.4,"04:11:48",1
"23/11/11","04:30",0.0,13.4,84.8,1013.0,321.2,2.0,3.2,317.7,0.00,10.9,16.2,"04:21:30",1
"23/11/11","04:40",0.0,13.5,84.1,1013.3,320.7,1.7,2.6,338.6,0.00,10.9,16.2,"04:34:46",1
"23/11/11","04:50",0.0,13.5,83.6,1013.3,328.2,1.8,3.4,346.0,0.00,10.8,16.3,"04:41:26",1
"23/11/11","05:00",0.0,13.5,83.3,1013.3,318.4,1.3,2.5,311.1,0.00,10.8,16.0,"04:59:56",1
"23/11/11","05:10",0.0,13.4,83.2,1013.5,308.4,1.5,3.1,341.7,0.00,10.7,16.1,"05:00:36",1
"23/11/11","05:20",0.0,13.1,83.3,1013.5,281.6,1.5,3.2,248.9,0.00,10.4,16.1,"05:18:52",1
"23/11/11","05:30",0.0,13.2,83.3,1014.0,279.6,1.3,2.0,248.6,0.00,10.5,16.0,"05:20:40",1
"23/11/11","05:40",0.0,12.9,83.3,1014.0,292.2,1.6,2.1,301.9,0.00,10.2,16.2,"05:38:54",1
"23/11/11","05:50",0.0,12.8,83.6,1014.2,321.0,2.1,3.3,308.6,0.00,10.1,16.0,"05:48:52",1
"23/11/11","06:00",0.0,12.7,83.5,1014.2,305.1,2.2,2.8,300.7,0.00,10.0,16.1,"05:59:58",1
"23/11/11","06:10",0.0,12.5,83.7,1014.2,316.3,2.5,4.2,314.0,0.00,9.9,16.2,"06:00:44",1
"23/11/11","06:20",0.0,12.3,84.0,1014.0,306.8,2.1,2.7,305.8,0.00,9.7,16.0,"06:14:02",1
"23/11/11","06:30",0.0,12.4,83.8,1014.5,296.3,2.3,2.6,289.5,0.00,9.8,16.0,"06:23:14",1
"23/11/11","06:40",0.0,12.4,83.5,1014.9,312.5,2.5,3.1,321.4,0.00,9.7,16.0,"06:31:16",1
"23/11/11","06:50",0.0,12.3,83.5,1014.9,313.0,2.3,2.8,316.8,0.00,9.6,16.1,"06:44:56",1
"23/11/11","07:00",0.0,12.4,83.3,1014.7,304.6,2.3,3.1,312.4,0.00,9.7,15.9,"06:52:14",1
"23/11/11","07:10",0.0,12.3,83.0,1014.9,302.5,2.5,4.9,310.1,0.00,9.5,15.8,"07:05:50",1
"23/11/11","07:20",0.0,12.6,82.3,1015.2,305.1,2.1,3.3,316.8,0.01,9.7,16.1,"07:13:56",1
"23/11/11","07:30",0.0,12.6,82.0,1015.6,296.1,1.8,2.6,324.2,0.01,9.7,15.8,"07:24:48",1
"23/11/11","07:40",0.0,12.6,82.0,1015.4,304.7,1.6,2.8,329.3,0.02,9.7,15.8,"07:33:08",1
"23/11/11","07:50",0.0,12.7,81.6,1015.9,301.3,1.7,2.9,317.7,0.03,9.7,16.0,"07:41:54",1
"23/11/11","08:00",0.0,12.8,80.8,1015.6,313.9,1.6,3.1,340.4,0.03,9.6,16.1,"07:51:48",1
"23/11/11","08:10",0.0,12.7,80.2,1016.1,304.3,1.6,2.9,296.9,0.02,9.4,15.8,"08:00:14",1
"23/11/11","08:20",0.0,12.9,80.1,1015.9,327.3,1.7,2.8,286.4,0.05,9.6,15.9,"08:19:06",1
"23/11/11","08:30",0.0,12.8,79.4,1016.1,303.8,1.3,2.0,327.9,0.03,9.4,15.7,"08:20:14",1
"23/11/11","08:40",0.0,13.0,79.1,1016.6,269.2,1.5,2.5,243.9,0.04,9.5,15.8,"08:33:56",1
"23/11/11","08:50",0.0,13.2,78.8,1016.1,318.2,1.5,2.8,331.5,0.10,9.6,15.8,"08:49:40",1
"23/11/11","09:00",0.0,13.7,76.6,1016.6,315.4,1.3,4.0,340.2,0.14,9.7,15.7,"08:59:34",1
"23/11/11","09:10",0.0,13.2,74.9,1016.4,348.7,1.7,2.6,349.5,0.08,8.9,15.8,"09:06:04",1
"23/11/11","09:20",0.0,13.5,73.9,1016.6,348.8,1.8,3.4,46.3,0.13,9.0,15.8,"09:17:12",1
"23/11/11","09:30",0.0,13.8,72.4,1016.4,345.8,2.3,5.4,21.3,0.16,9.0,15.7,"09:24:38",1
"23/11/11","09:40",0.0,13.8,71.7,1016.4,348.4,2.2,4.9,31.0,0.14,8.8,15.7,"09:36:54",1
"23/11/11","09:50",0.0,13.8,71.3,1016.6,351.9,2.2,5.0,17.2,0.15,8.7,15.9,"09:47:22",1
"23/11/11","10:00",0.0,13.6,71.5,1016.4,349.5,2.1,4.5,6.3,0.11,8.6,15.6,"09:55:26",1
"23/11/11","10:10",0.0,14.2,71.2,1016.6,344.0,2.1,4.4,323.5,0.28,9.1,15.7,"10:04:48",1
"23/11/11","10:20",0.0,14.5,68.3,1016.8,355.8,1.8,3.5,330.9,0.23,8.8,15.9,"10:14:00",1
"23/11/11","10:30",0.0,14.4,68.1,1016.8,349.8,2.1,4.1,338.9,0.17,8.6,15.9,"10:20:48",1
"23/11/11","10:40",0.0,14.9,67.8,1016.8,355.1,1.8,4.3,351.6,0.27,9.0,15.7,"10:32:24",1
"23/11/11","10:50",0.0,14.8,66.5,1016.4,345.0,2.2,4.3,4.5,0.29,8.7,15.8,"10:40:56",1
"23/11/11","11:00",0.0,15.0,65.8,1016.1,354.8,2.0,5.9,350.0,0.30,8.7,15.9,"10:57:12",1
"23/11/11","11:10",0.0,15.3,65.1,1016.1,353.0,2.0,4.1,343.8,0.31,8.8,15.8,"11:05:12",1
"23/11/11","11:20",0.0,14.7,65.4,1016.6,340.4,2.1,4.2,328.2,0.19,8.3,16.0,"11:18:08",1
"23/11/11","11:30",0.0,14.7,65.2,1016.1,346.1,2.0,3.9,11.5,0.24,8.3,16.0,"11:20:32",1
"23/11/11","11:40",0.0,14.5,65.5,1016.6,349.2,2.5,5.2,337.6,0.18,8.2,15.9,"11:32:08",1
"23/11/11","11:50",0.0,14.3,66.2,1016.6,339.3,2.2,3.9,341.0,0.15,8.1,15.9,"11:46:56",1
"23/11/11","12:00",0.0,14.2,67.4,1016.4,346.1,1.7,4.0,349.8,0.11,8.3,16.1,"11:52:02",1
"23/11/11","12:10",0.0,14.4,67.1,1016.1,349.7,1.5,4.0,351.0,0.14,8.4,16.0,"12:01:30",1
"23/11/11","12:20",0.0,14.7,66.7,1016.4,344.7,1.6,5.0,346.4,0.18,8.6,16.1,"12:19:36",1
"23/11/11","12:30",0.0,14.4,66.0,1015.9,355.7,1.7,3.7,337.8,0.13,8.2,16.1,"12:21:20",1
"23/11/11","12:40",0.0,14.6,66.6,1016.4,351.1,1.7,3.6,28.6,0.18,8.5,16.1,"12:33:20",1
"23/11/11","12:50",0.0,14.3,65.8,1015.9,356.7,1.7,3.7,12.9,0.11,8.0,16.2,"12:48:48",1
"23/11/11","13:00",0.0,13.8,67.1,1016.1,355.2,2.5,4.5,347.1,0.06,7.8,16.1,"12:53:34",1
"23/11/11","13:10",0.0,13.7,68.2,1015.9,333.3,2.6,4.4,309.3,0.08,8.0,15.9,"13:03:12",1
"23/11/11","13:20",0.0,14.1,68.4,1015.6,356.2,2.0,3.9,39.0,0.18,8.4,16.1,"13:18:02",1
"23/11/11","13:30",0.0,14.6,66.0,1015.2,344.5,2.6,5.7,328.3,0.26,8.4,15.9,"13:23:52",1
"23/11/11","13:40",0.0,14.9,65.4,1015.2,337.8,2.3,4.7,310.4,0.25,8.5,16.0,"13:31:44",1
"23/11/11","13:50",0.0,14.5,65.5,1015.2,340.3,2.2,5.4,323.5,0.13,8.2,16.1,"13:49:20",1
"23/11/11","14:00",0.0,14.2,67.4,1015.2,337.2,1.8,5.1,345.1,0.09,8.3,16.3,"13:53:06",1
"23/11/11","14:10",0.0,13.9,67.6,1015.4,344.6,2.0,3.1,289.5,0.08,8.1,16.3,"14:07:50",1
"23/11/11","14:20",0.0,13.9,68.3,1015.6,328.9,1.7,3.1,307.6,0.08,8.2,16.2,"14:16:36",1
"23/11/11","14:30",0.0,14.0,69.1,1015.6,319.6,1.5,2.5,340.3,0.06,8.5,16.0,"14:28:24",1
"23/11/11","14:40",0.0,13.9,69.1,1015.2,328.7,0.8,1.8,326.1,0.04,8.4,16.3,"14:32:32",1
"23/11/11","14:50",0.0,14.4,68.6,1014.9,339.2,1.1,2.6,334.7,0.12,8.7,16.3,"14:44:12",1
"23/11/11","15:00",0.0,14.9,66.7,1015.2,321.8,1.0,2.7,341.3,0.12,8.8,16.1,"14:55:28",1
"23/11/11","15:10",0.0,14.5,65.7,1015.6,348.9,1.5,3.6,355.4,0.06,8.2,16.3,"15:06:40",1
"23/11/11","15:20",0.0,13.7,67.4,1015.4,328.8,1.5,2.2,301.0,0.01,7.8,16.2,"15:18:26",1
"23/11/11","15:30",0.0,13.5,69.6,1015.4,333.0,1.5,2.7,330.8,0.01,8.1,16.3,"15:23:36",1
"23/11/11","15:40",0.0,13.3,70.9,1015.4,326.7,1.5,2.6,312.6,0.03,8.2,16.1,"15:39:04",1
"23/11/11","15:50",0.0,13.3,71.2,1015.6,322.8,1.6,2.4,310.6,0.01,8.2,16.1,"15:40:48",1
"23/11/11","16:00",0.0,13.1,71.6,1016.1,307.4,1.5,2.7,322.8,0.00,8.1,16.2,"15:59:26",1
"23/11/11","16:10",0.0,13.0,72.4,1016.1,326.6,1.6,2.7,333.4,0.00,8.2,16.0,"16:03:26",1
"23/11/11","16:20",0.0,12.8,73.0,1016.4,323.8,1.6,2.8,315.9,0.00,8.1,16.1,"16:17:40",1
"23/11/11","16:30",0.0,12.7,73.5,1016.4,327.0,1.5,2.6,329.2,0.00,8.1,16.2,"16:29:18",1
"23/11/11","16:40",0.0,12.6,74.0,1016.4,324.7,1.6,3.9,309.8,0.00,8.1,16.2,"16:34:56",1
"23/11/11","16:50",0.0,12.5,74.6,1016.4,325.6,1.6,3.1,336.1,0.00,8.2,16.1,"16:45:12",1
"23/11/11","17:00",0.0,12.3,75.2,1016.1,322.3,1.6,2.4,329.6,0.00,8.1,16.0,"16:50:16",1
"23/11/11","17:10",0.0,12.1,75.8,1016.4,315.6,1.5,2.2,319.4,0.00,8.0,16.0,"17:02:06",1
"23/11/11","17:20",0.0,11.9,76.4,1016.4,312.1,1.7,2.7,327.7,0.00,7.9,16.1,"17:14:50",1
"23/11/11","17:30",0.0,11.7,77.4,1016.1,317.7,2.0,2.9,340.9,0.00,7.9,16.1,"17:23:26",1
"23/11/11","17:40",0.0,11.6,78.1,1015.9,326.5,2.1,3.4,327.8,0.00,8.0,16.0,"17:34:42",1
"23/11/11","17:50",0.0,11.5,78.9,1016.1,310.0,2.1,2.8,340.1,0.00,8.0,16.0,"17:43:12",1
"23/11/11","18:00",0.0,11.4,79.8,1016.4,287.9,1.8,2.6,313.2,0.00,8.1,15.9,"17:55:44",1
"23/11/11","18:10",0.0,11.4,80.5,1016.4,300.5,1.8,2.6,312.2,0.00,8.2,16.2,"18:03:40",1
"23/11/11","18:20",0.0,11.4,80.9,1016.8,305.5,2.1,3.3,306.7,0.00,8.3,16.0,"18:18:50",1
"23/11/11","18:30",0.0,11.4,81.1,1016.8,317.8,2.6,3.9,322.7,0.00,8.3,15.8,"18:28:56",1
"23/11/11","18:40",0.0,11.4,81.2,1016.8,312.5,2.3,3.6,310.3,0.00,8.3,15.8,"18:32:06",1
"23/11/11","18:50",0.0,11.2,81.3,1016.8,304.9,2.1,2.9,307.3,0.00,8.2,15.6,"18:49:08",1
"23/11/11","19:00",0.0,11.0,81.9,1017.1,307.0,2.2,4.5,314.9,0.00,8.1,15.7,"18:58:24",1
"23/11/11","19:10",0.0,10.7,82.4,1017.1,289.4,1.8,3.2,287.4,0.00,7.9,15.6,"19:02:10",1
"23/11/11","19:20",0.0,10.5,83.3,1017.1,295.3,2.0,3.4,320.8,0.00,7.8,15.8,"19:18:48",1
"23/11/11","19:30",0.0,10.3,84.1,1017.1,301.7,2.2,3.1,305.7,0.00,7.8,15.7,"19:24:00",1
"23/11/11","19:40",0.0,10.2,84.6,1017.3,317.9,2.2,3.7,321.2,0.00,7.8,15.7,"19:35:52",1
"23/11/11","19:50",0.0,10.1,85.0,1016.6,305.8,2.0,2.8,329.1,0.00,7.7,15.7,"19:41:12",1
"23/11/11","20:00",0.0,10.0,85.4,1016.6,296.6,1.8,2.6,333.3,0.00,7.7,15.5,"19:51:36",1
"23/11/11","20:10",0.0,9.9,85.6,1016.4,302.2,2.1,3.1,309.2,0.00,7.6,15.5,"20:01:28",1
"23/11/11","20:20",0.0,10.0,85.7,1016.6,317.0,2.3,3.5,318.3,0.00,7.8,15.6,"20:16:00",1
"23/11/11","20:30",0.0,9.9,85.8,1016.6,323.7,2.3,3.3,327.9,0.00,7.7,15.6,"20:25:52",1
"23/11/11","20:40",0.0,9.7,86.0,1016.8,322.7,2.0,2.9,314.6,0.00,7.5,15.5,"20:30:56",1
"23/11/11","20:50",0.0,9.4,86.6,1016.4,326.8,2.1,2.9,344.9,0.00,7.3,15.4,"20:48:00",1
"23/11/11","21:00",0.0,9.4,87.4,1016.6,315.4,2.5,3.9,322.7,0.00,7.5,15.5,"20:51:44",1
"23/11/11","21:10",0.0,9.4,87.9,1016.6,304.1,2.6,4.5,306.4,0.00,7.5,15.1,"21:09:52",1
"23/11/11","21:20",0.0,9.4,88.2,1016.4,316.9,3.1,5.9,340.0,0.00,7.6,15.3,"21:19:20",1
"23/11/11","21:30",0.0,9.3,88.3,1016.6,322.4,2.7,4.2,338.6,0.00,7.5,15.3,"21:21:20",1
"23/11/11","21:40",0.0,9.4,88.4,1016.6,323.2,2.6,3.9,335.8,0.00,7.6,15.3,"21:35:44",1
"23/11/11","21:50",0.0,9.4,88.5,1016.4,324.0,2.1,3.3,342.0,0.00,7.6,15.2,"21:47:36",1
"23/11/11","22:00",0.0,9.3,88.7,1016.4,303.4,2.2,3.5,327.1,0.00,7.6,15.3,"21:54:24",1
"23/11/11","22:10",0.0,9.1,88.8,1016.4,295.3,2.2,3.5,299.8,0.00,7.4,15.2,"22:04:00",1
"23/11/11","22:20",0.0,9.3,88.8,1016.4,318.2,2.7,4.3,336.6,0.00,7.6,15.3,"22:10:32",1
"23/11/11","22:30",0.0,9.5,88.5,1016.6,326.3,2.0,4.0,339.1,0.00,7.7,15.2,"22:21:36",1
"23/11/11","22:40",0.0,9.4,88.6,1016.6,324.7,2.0,3.3,312.4,0.00,7.7,15.0,"22:32:32",1
"23/11/11","22:50",0.0,9.5,88.9,1016.6,327.7,2.5,3.9,341.7,0.00,7.8,15.2,"22:46:16",1
"23/11/11","23:00",0.0,9.8,89.2,1016.4,320.7,2.1,3.1,318.9,0.00,8.1,15.2,"22:58:56",1
"23/11/11","23:10",0.0,9.8,89.5,1016.1,319.0,2.3,3.6,336.5,0.00,8.2,15.0,"23:02:00",1
"23/11/11","23:20",0.0,9.6,89.7,1016.1,320.2,2.2,3.5,326.3,0.00,8.0,15.1,"23:14:24",1
"23/11/11","23:30",0.0,9.4,89.7,1016.4,323.7,2.1,3.4,320.5,0.00,7.8,14.9,"23:26:32",1
"23/11/11","23:40",0.0,9.4,89.7,1016.4,326.5,2.1,3.1,331.0,0.00,7.8,15.0,"23:30:08",1
"23/11/11","23:50",0.0,9.4,89.6,1016.4,308.0,2.0,2.7,309.7,0.00,7.8,14.9,"23:45:44",1
"23/11/11","24:00",0.0,9.4,89.5,1015.9,314.0,2.2,3.4,314.3,0.00,7.8,15.0,"23:53:36",1
